カタログに戻る

BREEZE-M DEB

LostHEO
NORAD 38564·DEBRIS·🇷🇺 Russia

打ち上げ Feb 28, 2006 から Baikonur Cosmodrome

Loading…

次のパス (今後24時間)

TLE

古いSource: Space-Track

元期: Jan 27, 2017, 04:17 UTC

1 38564U 06006DE  17027.17904237 -.00000038 +00000-0 +00000-0 0  9990
2 38564 051.6905 083.3323 5045808 013.0806 356.3999 05.31536711107581

AllMySatでBREEZE-M DEBをリアルタイム追跡

Download on the App Store